• In Uzbekistan
  • List of Countries
  • For 7 days
  • Water Temperature
  • Satellite Maps
  • Weather Map
  • Weather Widgets
  • user-avatar
    Login

    Hourly Weather Saskatoon

    Today, 18 November, Saturday

    Time Temperature Precipitation Wind Pressure Humidity
    00:00 -23°C° 0 mm 3 mps 715 mmHg 92%
    01:00 -23°C° 0 mm 3 mps 716 mmHg 93%
    02:00 -24°C° 0 mm 3 mps 716 mmHg 93%
    03:00 -24°C° 0 mm 3 mps 717 mmHg 92%
    04:00 -24°C° 0 mm 3 mps 717 mmHg 92%
    05:00 -24°C° 0 mm 3 mps 718 mmHg 92%
    06:00 -24°C° 0 mm 3 mps 718 mmHg 91%
    07:00 -24°C° 0 mm 3 mps 718 mmHg 91%
    08:00 -23°C° 0 mm 3 mps 718 mmHg 90%
    09:00 -22°C° 0 mm 3 mps 718 mmHg 89%
    10:00 -19°C° 0 mm 3 mps 718 mmHg 88%
    11:00 -17°C° 0 mm 3 mps 717 mmHg 87%
    12:00 -16°C° 0 mm 3 mps 717 mmHg 88%
    13:00 -15°C° 0 mm 3 mps 716 mmHg 89%
    14:00 -14°C° 0 mm 3 mps 716 mmHg 90%
    15:00 -14°C° 0 mm 3 mps 715 mmHg 90%
    16:00 -14°C° 0 mm 3 mps 715 mmHg 90%
    17:00 -15°C° 0 mm 3 mps 714 mmHg 90%
    18:00 -14°C° 0 mm 3 mps 714 mmHg 89%
    19:00 -13°C° 0 mm 3 mps 713 mmHg 87%
    20:00 -12°C° 0 mm 3 mps 713 mmHg 86%
    21:00 -10°C° 0 mm 3 mps 713 mmHg 85%
    22:00 -10°C° 0 mm 3 mps 712 mmHg 85%
    23:00 -8°C° 0 mm 2 mps 712 mmHg 85%

    Tomorrow, 19 November, Sunday

    Time Temperature Precipitation Wind Pressure Humidity
    00:00 -9°C° 0 mm 2 mps 712 mmHg 84%
    01:00 -9°C° 0 mm 2 mps 712 mmHg 84%
    02:00 -8°C° 0 mm 1 mps 712 mmHg 84%
    03:00 -9°C° 0 mm 1 mps 712 mmHg 85%
    04:00 -9°C° 0 mm 1 mps 712 mmHg 86%
    05:00 -10°C° 0 mm 1 mps 711 mmHg 87%
    06:00 -10°C° 0 mm 1 mps 711 mmHg 88%
    07:00 -13°C° 0 mm 2 mps 711 mmHg 90%
    08:00 -13°C° 0 mm 2 mps 711 mmHg 91%
    09:00 -12°C° 0 mm 2 mps 710 mmHg 91%
    10:00 -10°C° 0 mm 2 mps 710 mmHg 91%
    11:00 -10°C° 0 mm 3 mps 710 mmHg 91%
    12:00 -9°C° 0 mm 3 mps 709 mmHg 91%
    13:00 -9°C° 0 mm 3 mps 707 mmHg 91%
    14:00 -9°C° 0 mm 4 mps 706 mmHg 91%
    15:00 -9°C° 0 mm 4 mps 705 mmHg 91%
    16:00 -9°C° 0 mm 4 mps 704 mmHg 91%
    17:00 -9°C° 0 mm 4 mps 703 mmHg 91%
    18:00 -8°C° 0 mm 4 mps 702 mmHg 89%
    19:00 -7°C° 0 mm 4 mps 701 mmHg 87%
    20:00 -6°C° 0 mm 5 mps 700 mmHg 85%
    21:00 -4°C° 0 mm 4 mps 699 mmHg 82%
    22:00 -3°C° 0 mm 4 mps 698 mmHg 80%
    23:00 -2°C° 0 mm 4 mps 697 mmHg 78%

    Day after tomorrow, 20 November, Monday

    Time Temperature Precipitation Wind Pressure Humidity
    00:00 -2°C° 0 mm 4 mps 697 mmHg 78%
    01:00 -1°C° 0 mm 4 mps 697 mmHg 78%
    02:00 -1°C° 0 mm 5 mps 697 mmHg 78%
    03:00 -1°C° 0 mm 5 mps 698 mmHg 81%
    04:00 -1°C° 0 mm 5 mps 698 mmHg 84%
    05:00 -1°C° 0 mm 5 mps 698 mmHg 87%
    06:00 -4°C° 0.1 mm 6 mps 699 mmHg 85%
    07:00 -7°C° 0.1 mm 7 mps 701 mmHg 84%
    08:00 -9°C° 0.1 mm 9 mps 702 mmHg 82%
    09:00 -11°C° 0 mm 9 mps 703 mmHg 82%
    10:00 -14°C° 0 mm 9 mps 705 mmHg 82%
    11:00 -16°C° 0 mm 9 mps 706 mmHg 82%
    12:00 -16°C° 0 mm 9 mps 707 mmHg 81%
    13:00 -17°C° 0 mm 9 mps 708 mmHg 81%
    14:00 -17°C° 0 mm 9 mps 710 mmHg 81%
    15:00 -18°C° 0 mm 8 mps 711 mmHg 81%
    16:00 -19°C° 0 mm 8 mps 712 mmHg 82%
    17:00 -20°C° 0 mm 7 mps 714 mmHg 83%
    18:00 -20°C° 0 mm 7 mps 715 mmHg 84%
    19:00 -21°C° 0 mm 7 mps 716 mmHg 84%
    20:00 -21°C° 0 mm 6 mps 717 mmHg 85%
    21:00 -22°C° 0 mm 6 mps 718 mmHg 86%
    22:00 -21°C° 0 mm 5 mps 719 mmHg 87%
    23:00 -22°C° 0 mm 5 mps 720 mmHg 89%

    21 November, Tuesday

    Time Temperature Precipitation Wind Pressure Humidity
    00:00 -22°C° 0 mm 4 mps 721 mmHg 90%
    01:00 -23°C° 0 mm 4 mps 721 mmHg 90%
    02:00 -23°C° 0 mm 4 mps 722 mmHg 91%
    03:00 -23°C° 0 mm 3 mps 722 mmHg 92%
    04:00 -23°C° 0 mm 3 mps 723 mmHg 93%
    05:00 -24°C° 0 mm 3 mps 723 mmHg 94%
    06:00 -24°C° 0 mm 3 mps 724 mmHg 94%
    07:00 -24°C° 0 mm 3 mps 724 mmHg 94%
    08:00 -23°C° 0 mm 2 mps 725 mmHg 94%
    09:00 -21°C° 0 mm 2 mps 725 mmHg 93%
    10:00 -20°C° 0 mm 2 mps 725 mmHg 92%
    11:00 -19°C° 0 mm 2 mps 725 mmHg 91%
    12:00 -18°C° 0 mm 2 mps 725 mmHg 92%
    13:00 -18°C° 0 mm 2 mps 725 mmHg 92%
    14:00 -16°C° 0 mm 1 mps 725 mmHg 92%
    15:00 -16°C° 0 mm 1 mps 724 mmHg 92%
    16:00 -17°C° 0 mm 1 mps 724 mmHg 92%
    17:00 -18°C° 0 mm 1 mps 724 mmHg 92%
    18:00 -18°C° 0 mm 1 mps 723 mmHg 92%
    19:00 -20°C° 0 mm 2 mps 723 mmHg 92%
    20:00 -20°C° 0 mm 2 mps 722 mmHg 91%
    21:00 -19°C° 0 mm 2 mps 721 mmHg 90%
    22:00 -19°C° 0 mm 2 mps 720 mmHg 90%
    23:00 -19°C° 0 mm 3 mps 719 mmHg 89%

    22 November, Wednesday

    Time Temperature Precipitation Wind Pressure Humidity
    00:00 -18°C° 0 mm 3 mps 718 mmHg 87%
    01:00 -18°C° 0 mm 4 mps 717 mmHg 85%
    02:00 -16°C° 0 mm 4 mps 716 mmHg 84%
    03:00 -15°C° 0 mm 4 mps 715 mmHg 85%
    04:00 -14°C° 0 mm 4 mps 714 mmHg 86%
    05:00 -13°C° 0 mm 5 mps 713 mmHg 87%
    06:00 -12°C° 0.1 mm 4 mps 713 mmHg 90%
    07:00 -12°C° 0.1 mm 3 mps 713 mmHg 92%
    08:00 -10°C° 0.1 mm 2 mps 712 mmHg 95%
    09:00 -10°C° 0 mm 2 mps 713 mmHg 94%
    10:00 -8°C° 0 mm 1 mps 713 mmHg 94%
    11:00 -8°C° 0 mm 1 mps 714 mmHg 94%
    12:00 -8°C° 0 mm 1 mps 714 mmHg 94%
    13:00 -9°C° 0 mm 2 mps 715 mmHg 94%
    14:00 -9°C° 0 mm 2 mps 715 mmHg 94%
    15:00 -10°C° 0 mm 2 mps 715 mmHg 94%
    16:00 -10°C° 0 mm 1 mps 715 mmHg 94%
    17:00 -11°C° 0 mm 1 mps 716 mmHg 94%
    18:00 -11°C° 0 mm 1 mps 716 mmHg 94%
    19:00 -11°C° 0 mm 1 mps 716 mmHg 93%
    20:00 -11°C° 0 mm 1 mps 715 mmHg 93%
    21:00 -11°C° 0 mm 1 mps 715 mmHg 93%
    22:00 -12°C° 0 mm 2 mps 714 mmHg 93%
    23:00 -12°C° 0 mm 2 mps 714 mmHg 92%

    23 November, Thursday

    Time Temperature Precipitation Wind Pressure Humidity
    00:00 -10°C° 0 mm 2 mps 713 mmHg 92%
    01:00 -12°C° 0 mm 3 mps 712 mmHg 92%
    02:00 -10°C° 0 mm 3 mps 711 mmHg 92%
    03:00 -9°C° 0 mm 3 mps 711 mmHg 92%
    04:00 -7°C° 0 mm 2 mps 710 mmHg 93%
    05:00 -6°C° 0 mm 2 mps 709 mmHg 93%
    06:00 -4°C° 0 mm 1 mps 709 mmHg 93%
    07:00 -4°C° 0 mm 1 mps 709 mmHg 94%
    08:00 -6°C° 0 mm 1 mps 708 mmHg 94%
    09:00 -4°C° 0 mm 1 mps 708 mmHg 94%
    10:00 -3°C° 0 mm 1 mps 709 mmHg 95%
    11:00 -2°C° 0 mm 1 mps 709 mmHg 95%
    12:00 -2°C° 0 mm 1 mps 709 mmHg 95%
    13:00 -1°C° 0 mm 1 mps 709 mmHg 95%
    14:00 -1°C° 0 mm 1 mps 709 mmHg 96%
    15:00 -1°C° 0 mm 1 mps 710 mmHg 96%
    16:00 -2°C° 0 mm 1 mps 710 mmHg 96%
    17:00 -3°C° 0 mm 1 mps 710 mmHg 96%
    18:00 -5°C° 0 mm 2 mps 710 mmHg 96%
    19:00 -6°C° 0 mm 2 mps 710 mmHg 96%
    20:00 -7°C° 0 mm 2 mps 710 mmHg 96%
    21:00 -7°C° 0 mm 2 mps 710 mmHg 96%
    22:00 -7°C° 0 mm 2 mps 710 mmHg 96%
    23:00 -7°C° 0 mm 2 mps 710 mmHg 96%
    Show more